FENGYUN 1C DEB

Satellite information

Favourite Embed

Satellite Type and Status

DEBRISIN ORBIT

Key statistics

Satellite FENGYUN 1C DEB at a glance.

Uptime

9610

Days in orbit

Revolutions

≈ 14.5

Per day

Orbit

SSO

Sun Synchronous Orbit

Inclination

98.2

Latest

Satellite identification and parameters

Extended collection of information and parameters for FENGYUN 1C DEB.

Object identification

Identified? True

Debris? True

Object name: FENGYUN 1C DEB

International designator: 1999-025EE

Object number (NORAD): 29836

Object ID (CCSDS): 29836

Country: PEOPLES REPUBLIC OF CHINA (PRC)

Current information (Y/N): Y

RCS size: SMALL

Orbital parameters

Period: 99.081 minutes

Inclination: 98.1867 deg

SMA: 7092.829 km

Apoapsis: 826.086 km

Periapsis: 603.302 km

RAAN: 341.0105 deg

Eccentricy: 0.01570487

Argument of periapsis: 163.4964 deg

Mean anomaly: 322.1755 deg

Mean motion: 14.53361078 rev/day

Mean motion (dot): 0.00005684 rev/day2

B* drag term: 0.0011706577 1/REarth

Two-line elements (TLE)

Creation date: Aug. 31, 2025, 2:26 a.m.

Reference frame: TEME

Reference center: EARTH

Epoch: Aug. 30, 2025, 7:15 p.m. UTC

TLE line 0: 0 FENGYUN 1C DEB

TLE line 1: 1 29836U 99025EE 25242.80229071 .00005684 00000-0 11707-2 0 9998

TLE line 2: 2 29836 98.1867 341.0105 0157049 163.4964 322.1755 14.53361078620452

Live tracking on map

Real-time ground track for satellite FENGYUN 1C DEB.

In-orbit conjunctions

A list of the most updated potential collisions computed for object FENGYUN 1C DEB.

Target Orbit TCA Probability of collision Miss distance Type
JD 3 LEO 2025-01-30 11:17:29 0.000106674 918.0 (m) PAYLOAD
COSMOS 1275 DEB LEO 2024-08-30 12:26:56 0.0001736709 129.0 (m) DEBRIS

Associated space launch

Chinese polar orbiting meteorological satellite

FENGYUN 1C DEB was lifted into orbit during the mission ‘Long March 4B | Feng Yun 1C’, on board a Long March 4B space rocket.

The launch took place on May 10, 1999, 1:33 a.m. from Launch Complex 7.

For more information about the launch, click the button.

Launch to space Long March 4B | Feng Yun 1C
Long March 4B | Feng Yun 1C

Agency: N/A

Status: Launch Successful

Launch date: May 10, 1999, 1:33 a.m. UTC

Rocket: Long March 4B

Launch pad: Launch Complex 7

Location: Taiyuan Satellite Launch Center, People's Republic of China

...

Latest news about this satellite

There are no fresh news available about this satellite. Check back as we update our databases every day.


Newsletter sign-up

Weekly statistics, charts and insights to help you stay on top of the space industry.